Year,Month,Day,Hour,Minute,Value (Times are PST for temperature in C)
2009,09,12,00,00,16.80
2009,09,12,00,01,16.80
2009,09,12,00,02,16.70
2009,09,12,00,03,16.70
2009,09,12,00,04,16.80
2009,09,12,00,05,16.80
2009,09,12,00,06,16.80
2009,09,12,00,07,16.90
2009,09,12,00,08,16.90
2009,09,12,00,09,16.90
2009,09,12,00,10,16.80
2009,09,12,00,11,16.80
2009,09,12,00,12,16.80
2009,09,12,00,13,16.80
2009,09,12,00,14,16.80
2009,09,12,00,15,16.80
2009,09,12,00,16,16.90
2009,09,12,00,17,16.90
2009,09,12,00,18,16.90
2009,09,12,00,19,16.90
2009,09,12,00,20,16.90
2009,09,12,00,21,16.80
2009,09,12,00,22,16.80
2009,09,12,00,23,16.80
2009,09,12,00,24,16.80
2009,09,12,00,25,16.70
2009,09,12,00,26,16.70
2009,09,12,00,27,16.70
2009,09,12,00,28,16.70
2009,09,12,00,29,16.70
2009,09,12,00,30,16.60
2009,09,12,00,31,16.60
2009,09,12,00,32,16.60
2009,09,12,00,33,16.50
2009,09,12,00,34,16.40
2009,09,12,00,35,16.40
2009,09,12,00,36,16.40
2009,09,12,00,37,16.40
2009,09,12,00,38,16.40
2009,09,12,00,39,16.40
2009,09,12,00,40,16.40
2009,09,12,00,41,16.30
2009,09,12,00,42,16.30
2009,09,12,00,43,16.30
2009,09,12,00,44,16.30
2009,09,12,00,45,16.30
2009,09,12,00,46,16.30
2009,09,12,00,47,16.40
2009,09,12,00,48,16.40
2009,09,12,00,49,16.40
2009,09,12,00,50,16.40
2009,09,12,00,51,16.40
2009,09,12,00,52,16.40
2009,09,12,00,53,16.40
2009,09,12,00,54,16.40
2009,09,12,00,55,16.40
2009,09,12,00,56,16.30
2009,09,12,00,57,16.30
2009,09,12,00,58,16.30
2009,09,12,00,59,16.30
2009,09,12,01,00,16.20
2009,09,12,01,01,16.20
2009,09,12,01,02,16.20
2009,09,12,01,03,16.10
2009,09,12,01,04,16.10
2009,09,12,01,05,16.10
2009,09,12,01,06,16.10
2009,09,12,01,07,16.10
2009,09,12,01,08,16.10
2009,09,12,01,09,16.10
2009,09,12,01,10,16.10
2009,09,12,01,11,16.10
2009,09,12,01,12,16.10
2009,09,12,01,13,16.10
2009,09,12,01,14,16.10
2009,09,12,01,15,16.00
2009,09,12,01,16,15.90
2009,09,12,01,17,15.80
2009,09,12,01,18,15.80
2009,09,12,01,19,15.70
2009,09,12,01,20,15.60
2009,09,12,01,21,15.60
2009,09,12,01,22,15.50
2009,09,12,01,23,15.40
2009,09,12,01,24,15.30
2009,09,12,01,25,15.30
2009,09,12,01,26,15.30
2009,09,12,01,27,15.30
2009,09,12,01,28,15.30
2009,09,12,01,29,15.30
2009,09,12,01,30,15.30
2009,09,12,01,31,15.30
2009,09,12,01,32,15.40
2009,09,12,01,33,15.50
2009,09,12,01,34,15.60
2009,09,12,01,35,15.70
2009,09,12,01,36,15.70
2009,09,12,01,37,15.80
2009,09,12,01,38,15.80
2009,09,12,01,39,15.80
2009,09,12,01,40,15.90
2009,09,12,01,41,15.90
2009,09,12,01,42,15.90
2009,09,12,01,43,16.00
2009,09,12,01,44,16.10
2009,09,12,01,45,16.10
2009,09,12,01,46,16.10
2009,09,12,01,47,16.00
2009,09,12,01,48,15.90
2009,09,12,01,49,15.90
2009,09,12,01,50,15.80
2009,09,12,01,51,15.80
2009,09,12,01,52,15.80
2009,09,12,01,53,15.80
2009,09,12,01,54,15.70
2009,09,12,01,55,15.70
2009,09,12,01,56,15.60
2009,09,12,01,57,15.60
2009,09,12,01,58,15.50
2009,09,12,01,59,15.50
2009,09,12,02,00,15.40
2009,09,12,02,01,15.40
2009,09,12,02,02,15.30
2009,09,12,02,03,15.30
2009,09,12,02,04,15.30
2009,09,12,02,05,15.20
2009,09,12,02,06,15.10
2009,09,12,02,07,15.10
2009,09,12,02,08,15.10
2009,09,12,02,09,15.10
2009,09,12,02,10,15.00
2009,09,12,02,11,15.00
2009,09,12,02,12,15.00
2009,09,12,02,13,15.00
2009,09,12,02,14,14.90
2009,09,12,02,15,14.90
2009,09,12,02,16,14.80
2009,09,12,02,17,14.80
2009,09,12,02,18,14.80
2009,09,12,02,19,14.80
2009,09,12,02,20,14.80
2009,09,12,02,21,14.80
2009,09,12,02,22,14.80
2009,09,12,02,23,14.80
2009,09,12,02,24,14.80
2009,09,12,02,25,14.80
2009,09,12,02,26,14.80
2009,09,12,02,27,14.80
2009,09,12,02,28,14.80
2009,09,12,02,29,14.80
2009,09,12,02,30,14.80
2009,09,12,02,31,14.80
2009,09,12,02,32,14.70
2009,09,12,02,33,14.70
2009,09,12,02,34,14.70
2009,09,12,02,35,14.80
2009,09,12,02,36,14.80
2009,09,12,02,37,14.80
2009,09,12,02,38,14.80
2009,09,12,02,39,14.80
2009,09,12,02,40,14.80
2009,09,12,02,41,14.80
2009,09,12,02,42,14.80
2009,09,12,02,43,14.90
2009,09,12,02,44,14.90
2009,09,12,02,45,14.90
2009,09,12,02,46,15.00
2009,09,12,02,47,15.00
2009,09,12,02,48,15.00
2009,09,12,02,49,15.10
2009,09,12,02,50,15.10
2009,09,12,02,51,15.10
2009,09,12,02,52,15.20
2009,09,12,02,53,15.30
2009,09,12,02,54,15.30
2009,09,12,02,55,15.40
2009,09,12,02,56,15.50
2009,09,12,02,57,15.50
2009,09,12,02,58,15.60
2009,09,12,02,59,15.70
2009,09,12,03,00,15.70
2009,09,12,03,01,15.80
2009,09,12,03,02,15.80
2009,09,12,03,03,15.80
2009,09,12,03,04,15.80
2009,09,12,03,05,15.80
2009,09,12,03,06,15.90
2009,09,12,03,07,16.00
2009,09,12,03,08,16.10
2009,09,12,03,09,16.10
2009,09,12,03,10,16.10
2009,09,12,03,11,16.10
2009,09,12,03,12,16.10
2009,09,12,03,13,16.20
2009,09,12,03,14,16.20
2009,09,12,03,15,16.30
2009,09,12,03,16,16.30
2009,09,12,03,17,16.40
2009,09,12,03,18,16.40
2009,09,12,03,19,16.40
2009,09,12,03,20,16.40
2009,09,12,03,21,16.40
2009,09,12,03,22,16.40
2009,09,12,03,23,16.40
2009,09,12,03,24,16.40
2009,09,12,03,25,16.40
2009,09,12,03,26,16.40
2009,09,12,03,27,16.40
2009,09,12,03,28,16.40
2009,09,12,03,29,16.40
2009,09,12,03,30,16.30
2009,09,12,03,31,16.30
2009,09,12,03,32,16.20
2009,09,12,03,33,16.20
2009,09,12,03,34,16.20
2009,09,12,03,35,16.20
2009,09,12,03,36,16.20
2009,09,12,03,37,16.20
2009,09,12,03,38,16.20
2009,09,12,03,39,16.20
2009,09,12,03,40,16.20
2009,09,12,03,41,16.20
2009,09,12,03,42,16.10
2009,09,12,03,43,16.10
2009,09,12,03,44,16.10
2009,09,12,03,45,16.10
2009,09,12,03,46,16.00
2009,09,12,03,47,15.90
2009,09,12,03,48,15.80
2009,09,12,03,49,15.80
2009,09,12,03,50,15.80
2009,09,12,03,51,15.70
2009,09,12,03,52,15.70
2009,09,12,03,53,15.70
2009,09,12,03,54,15.60
2009,09,12,03,55,15.60
2009,09,12,03,56,15.60
2009,09,12,03,57,15.60
2009,09,12,03,58,15.50
2009,09,12,03,59,15.50
2009,09,12,04,00,15.50
2009,09,12,04,01,15.50
2009,09,12,04,02,15.50
2009,09,12,04,03,15.50
2009,09,12,04,04,15.50
2009,09,12,04,05,15.50
2009,09,12,04,06,15.50
2009,09,12,04,07,15.50
2009,09,12,04,08,15.50
2009,09,12,04,09,15.50
2009,09,12,04,10,15.40
2009,09,12,04,11,15.40
2009,09,12,04,12,15.40
2009,09,12,04,13,15.40
2009,09,12,04,14,15.40
2009,09,12,04,15,15.40
2009,09,12,04,16,15.30
2009,09,12,04,17,15.30
2009,09,12,04,18,15.30
2009,09,12,04,19,15.30
2009,09,12,04,20,15.30
2009,09,12,04,21,15.30
2009,09,12,04,22,15.30
2009,09,12,04,23,15.30
2009,09,12,04,24,15.30
2009,09,12,04,25,15.30
2009,09,12,04,26,15.30
2009,09,12,04,27,15.30
2009,09,12,04,28,15.30
2009,09,12,04,29,15.40
2009,09,12,04,30,15.40
2009,09,12,04,31,15.40
2009,09,12,04,32,15.40
2009,09,12,04,33,15.40
2009,09,12,04,34,15.30
2009,09,12,04,35,15.30
2009,09,12,04,36,15.30
2009,09,12,04,37,15.30
2009,09,12,04,38,15.30
2009,09,12,04,39,15.30
2009,09,12,04,40,15.30
2009,09,12,04,41,15.30
2009,09,12,04,42,15.30
2009,09,12,04,43,15.30
2009,09,12,04,44,15.30
2009,09,12,04,45,15.40
2009,09,12,04,46,15.40
2009,09,12,04,47,15.50
2009,09,12,04,48,15.60
2009,09,12,04,49,15.70
2009,09,12,04,50,15.70
2009,09,12,04,51,15.80
2009,09,12,04,52,15.80
2009,09,12,04,53,15.90
2009,09,12,04,54,16.00
2009,09,12,04,55,16.10
2009,09,12,04,56,16.10
2009,09,12,04,57,16.10
2009,09,12,04,58,16.10
2009,09,12,04,59,16.10
2009,09,12,05,00,16.10
2009,09,12,05,01,16.10
2009,09,12,05,02,16.10
2009,09,12,05,03,16.10
2009,09,12,05,04,16.10
2009,09,12,05,05,16.20
2009,09,12,05,06,16.20
2009,09,12,05,07,16.20
2009,09,12,05,08,16.30
2009,09,12,05,09,16.30
2009,09,12,05,10,16.30
2009,09,12,05,11,16.30
2009,09,12,05,12,16.30
2009,09,12,05,13,16.30
2009,09,12,05,14,16.30
2009,09,12,05,15,16.30
2009,09,12,05,16,16.30
2009,09,12,05,17,16.30
2009,09,12,05,18,16.30
2009,09,12,05,19,16.30
2009,09,12,05,20,16.30
2009,09,12,05,21,16.30
2009,09,12,05,22,16.20
2009,09,12,05,23,16.20
2009,09,12,05,24,16.20
2009,09,12,05,25,16.10
2009,09,12,05,26,16.10
2009,09,12,05,27,16.00
2009,09,12,05,28,15.90
2009,09,12,05,29,15.90
2009,09,12,05,30,15.80
2009,09,12,05,31,15.80
2009,09,12,05,32,15.80
2009,09,12,05,33,15.80
2009,09,12,05,34,15.80
2009,09,12,05,35,15.70
2009,09,12,05,36,15.70
2009,09,12,05,37,15.60
2009,09,12,05,38,15.60
2009,09,12,05,39,15.50
2009,09,12,05,40,15.50
2009,09,12,05,41,15.40
2009,09,12,05,42,15.40
2009,09,12,05,43,15.30
2009,09,12,05,44,15.30
2009,09,12,05,45,15.20
2009,09,12,05,46,15.20
2009,09,12,05,47,15.10
2009,09,12,05,48,15.10
2009,09,12,05,49,15.00
2009,09,12,05,50,15.00
2009,09,12,05,51,15.00
2009,09,12,05,52,15.10
2009,09,12,05,53,15.10
2009,09,12,05,54,15.20
2009,09,12,05,55,15.20
2009,09,12,05,56,15.30
2009,09,12,05,57,15.30
2009,09,12,05,58,15.30
2009,09,12,05,59,15.30
2009,09,12,06,00,15.30
2009,09,12,06,01,15.30
2009,09,12,06,02,15.30
2009,09,12,06,03,15.30
2009,09,12,06,04,15.30
2009,09,12,06,05,15.30
2009,09,12,06,06,15.20
2009,09,12,06,07,15.10
2009,09,12,06,08,15.00
2009,09,12,06,09,14.90
2009,09,12,06,10,14.80
2009,09,12,06,11,14.80
2009,09,12,06,12,14.80
2009,09,12,06,13,14.80
2009,09,12,06,14,14.70
2009,09,12,06,15,14.70
2009,09,12,06,16,14.60
2009,09,12,06,17,14.60
2009,09,12,06,18,14.60
2009,09,12,06,19,14.60
2009,09,12,06,20,14.70
2009,09,12,06,21,14.80
2009,09,12,06,22,14.80
2009,09,12,06,23,14.80
2009,09,12,06,24,14.80
2009,09,12,06,25,14.80
2009,09,12,06,26,14.90
2009,09,12,06,27,14.90
2009,09,12,06,28,14.90
2009,09,12,06,29,15.00
2009,09,12,06,30,15.00
2009,09,12,06,31,15.10
2009,09,12,06,32,15.10
2009,09,12,06,33,15.20
2009,09,12,06,34,15.20
2009,09,12,06,35,15.30
2009,09,12,06,36,15.30
2009,09,12,06,37,15.30
2009,09,12,06,38,15.40
2009,09,12,06,39,15.50
2009,09,12,06,40,15.50
2009,09,12,06,41,15.60
2009,09,12,06,42,15.70
2009,09,12,06,43,15.80
2009,09,12,06,44,15.80
2009,09,12,06,45,15.90
2009,09,12,06,46,16.00
2009,09,12,06,47,16.10
2009,09,12,06,48,16.10
2009,09,12,06,49,16.10
2009,09,12,06,50,16.20
2009,09,12,06,51,16.20
2009,09,12,06,52,16.30
2009,09,12,06,53,16.30
2009,09,12,06,54,16.30
2009,09,12,06,55,16.40
2009,09,12,06,56,16.40
2009,09,12,06,57,16.40
2009,09,12,06,58,16.40
2009,09,12,06,59,16.50
2009,09,12,07,00,16.60
2009,09,12,07,01,16.60
2009,09,12,07,02,16.60
2009,09,12,07,03,16.60
2009,09,12,07,04,16.60
2009,09,12,07,05,16.70
2009,09,12,07,06,16.70
2009,09,12,07,07,16.70
2009,09,12,07,08,16.70
2009,09,12,07,09,16.70
2009,09,12,07,10,16.70
2009,09,12,07,11,16.70
2009,09,12,07,12,16.70
2009,09,12,07,13,16.70
2009,09,12,07,14,16.70
2009,09,12,07,15,16.70
2009,09,12,07,16,16.70
2009,09,12,07,17,16.80
2009,09,12,07,18,16.80
2009,09,12,07,19,16.90
2009,09,12,07,20,16.90
2009,09,12,07,21,16.90
2009,09,12,07,22,17.00
2009,09,12,07,23,17.00
2009,09,12,07,24,17.10
2009,09,12,07,25,17.10
2009,09,12,07,26,17.10
2009,09,12,07,27,17.10
2009,09,12,07,28,17.20
2009,09,12,07,29,17.20
2009,09,12,07,30,17.30
2009,09,12,07,31,17.30
2009,09,12,07,32,17.30
2009,09,12,07,33,17.30
2009,09,12,07,34,17.30
2009,09,12,07,35,17.40
2009,09,12,07,36,17.40
2009,09,12,07,37,17.40
2009,09,12,07,38,17.50
2009,09,12,07,39,17.50
2009,09,12,07,40,17.50
2009,09,12,07,41,17.50
2009,09,12,07,42,17.40
2009,09,12,07,43,17.40
2009,09,12,07,44,17.30
2009,09,12,07,45,17.30
2009,09,12,07,46,17.30
2009,09,12,07,47,17.20
2009,09,12,07,48,17.10
2009,09,12,07,49,17.00
2009,09,12,07,50,17.00
2009,09,12,07,51,16.90
2009,09,12,07,52,16.80
2009,09,12,07,53,16.80
2009,09,12,07,54,16.80
2009,09,12,07,55,16.80
2009,09,12,07,56,16.80
2009,09,12,07,57,16.80
2009,09,12,07,58,16.90
2009,09,12,07,59,16.90
2009,09,12,08,00,17.00
2009,09,12,08,01,17.00
2009,09,12,08,02,17.10
2009,09,12,08,03,17.10
2009,09,12,08,04,17.20
2009,09,12,08,05,17.20
2009,09,12,08,06,17.20
2009,09,12,08,07,17.20
2009,09,12,08,08,17.10
2009,09,12,08,09,17.10
2009,09,12,08,10,17.10
2009,09,12,08,11,17.10
2009,09,12,08,12,17.10
2009,09,12,08,13,17.00
2009,09,12,08,14,17.00
2009,09,12,08,15,16.90
2009,09,12,08,16,16.90
2009,09,12,08,17,16.90
2009,09,12,08,18,16.90
2009,09,12,08,19,16.90
2009,09,12,08,20,16.80
2009,09,12,08,21,16.80
2009,09,12,08,22,16.80
2009,09,12,08,23,16.80
2009,09,12,08,24,16.80
2009,09,12,08,25,16.80
2009,09,12,08,26,16.80
2009,09,12,08,27,16.90
2009,09,12,08,28,16.90
2009,09,12,08,29,17.00
2009,09,12,08,30,17.10
2009,09,12,08,31,17.10
2009,09,12,08,32,17.20
2009,09,12,08,33,17.30
2009,09,12,08,34,17.40
2009,09,12,08,35,17.50
2009,09,12,08,36,17.60
2009,09,12,08,37,17.80
2009,09,12,08,38,17.90
2009,09,12,08,39,18.00
2009,09,12,08,40,18.10
2009,09,12,08,41,18.20
2009,09,12,08,42,18.20
2009,09,12,08,43,18.30
2009,09,12,08,44,18.40
2009,09,12,08,45,18.40
2009,09,12,08,46,18.50
2009,09,12,08,47,18.50
2009,09,12,08,48,18.50
2009,09,12,08,49,18.40
2009,09,12,08,50,18.30
2009,09,12,08,51,18.20
2009,09,12,08,52,18.10
2009,09,12,08,53,18.10
2009,09,12,08,54,18.00
2009,09,12,08,55,18.00
2009,09,12,08,56,18.10
2009,09,12,08,57,18.10
2009,09,12,08,58,18.10
2009,09,12,08,59,18.20
2009,09,12,09,00,18.20
2009,09,12,09,01,18.20
2009,09,12,09,02,18.30
2009,09,12,09,03,18.30
2009,09,12,09,04,18.30
2009,09,12,09,05,18.40
2009,09,12,09,06,18.40
2009,09,12,09,07,18.40
2009,09,12,09,08,18.40
2009,09,12,09,09,18.50
2009,09,12,09,10,18.50
2009,09,12,09,11,18.50
2009,09,12,09,12,18.50
2009,09,12,09,13,18.60
2009,09,12,09,14,18.60
2009,09,12,10,47,20.90
2009,09,12,10,48,20.80
2009,09,12,10,49,20.80
2009,09,12,10,50,20.80
2009,09,12,10,51,20.70
2009,09,12,10,52,20.70
2009,09,12,10,53,20.70
2009,09,12,10,54,20.70
2009,09,12,10,55,20.70
2009,09,12,10,56,20.80
2009,09,12,10,57,20.80
2009,09,12,10,58,20.80
2009,09,12,10,59,20.80
2009,09,12,11,00,20.80
2009,09,12,11,01,20.80
2009,09,12,11,02,20.80
2009,09,12,11,03,20.80
2009,09,12,11,04,20.70
2009,09,12,11,05,20.70
2009,09,12,11,06,20.70
2009,09,12,11,07,20.80
2009,09,12,11,08,20.80
2009,09,12,11,09,20.80
2009,09,12,11,10,20.80
2009,09,12,11,11,20.80
2009,09,12,11,12,20.80
2009,09,12,11,13,20.90
2009,09,12,11,14,20.80
2009,09,12,11,15,20.80
2009,09,12,11,16,20.80
2009,09,12,11,17,20.80
2009,09,12,11,18,20.80
2009,09,12,11,19,20.70
2009,09,12,11,20,20.70
2009,09,12,11,21,20.60
2009,09,12,11,22,20.60
2009,09,12,11,23,20.60
2009,09,12,11,24,20.50
2009,09,12,11,25,20.50
2009,09,12,11,26,20.50
2009,09,12,11,27,20.40
2009,09,12,11,28,20.50
2009,09,12,11,29,20.50
2009,09,12,11,30,20.60
2009,09,12,11,31,20.70
2009,09,12,11,32,20.70
2009,09,12,11,33,20.80
2009,09,12,11,34,20.80
2009,09,12,11,35,20.80
2009,09,12,11,36,20.70
2009,09,12,11,37,20.70
2009,09,12,11,38,20.70
2009,09,12,11,39,20.70
2009,09,12,11,40,20.70
2009,09,12,11,41,20.80
2009,09,12,11,42,20.80
2009,09,12,11,43,20.90
2009,09,12,11,44,20.90
2009,09,12,11,45,21.00
2009,09,12,11,46,21.00
2009,09,12,11,47,20.90
2009,09,12,11,48,20.90
2009,09,12,11,49,20.90
2009,09,12,11,50,20.80
2009,09,12,11,51,20.80
2009,09,12,11,52,20.80
2009,09,12,11,53,20.80
2009,09,12,11,54,20.80
2009,09,12,11,55,20.70
2009,09,12,11,56,20.70
2009,09,12,11,57,20.80
2009,09,12,11,58,20.80
2009,09,12,11,59,20.90
2009,09,12,12,00,21.00
2009,09,12,12,01,21.00
2009,09,12,12,02,21.10
2009,09,12,12,03,21.10
2009,09,12,12,04,21.00
2009,09,12,12,05,20.90
2009,09,12,12,06,20.90
2009,09,12,12,07,21.00
2009,09,12,12,08,21.00
2009,09,12,12,09,21.20
2009,09,12,12,10,21.30
2009,09,12,12,11,21.50
2009,09,12,12,12,21.60
2009,09,12,12,13,21.60
2009,09,12,12,14,21.70
2009,09,12,12,15,21.90
2009,09,12,12,16,21.90
2009,09,12,12,17,22.00
2009,09,12,12,18,22.10
2009,09,12,12,19,22.10
2009,09,12,12,20,22.20
2009,09,12,12,21,22.30
2009,09,12,12,22,22.50
2009,09,12,12,23,22.50
2009,09,12,12,24,22.50
2009,09,12,12,25,22.40
2009,09,12,12,26,22.40
2009,09,12,12,27,22.30
2009,09,12,12,28,22.30
2009,09,12,12,29,22.20
2009,09,12,12,30,22.30
2009,09,12,12,31,22.20
2009,09,12,12,32,22.20
2009,09,12,12,33,22.10
2009,09,12,12,34,22.00
2009,09,12,12,35,21.90
2009,09,12,12,36,21.80
2009,09,12,12,37,21.80
2009,09,12,12,38,21.80
2009,09,12,12,39,21.90
2009,09,12,12,40,22.00
2009,09,12,12,41,22.00
2009,09,12,12,42,22.10
2009,09,12,12,43,22.10
2009,09,12,12,44,22.10
2009,09,12,12,45,22.00
2009,09,12,12,46,21.90
2009,09,12,12,47,21.90
2009,09,12,12,48,21.80
2009,09,12,12,49,21.80
2009,09,12,12,50,21.80
2009,09,12,12,51,21.80
2009,09,12,12,52,21.80
2009,09,12,12,53,21.80
2009,09,12,12,54,21.80
2009,09,12,12,55,21.80
2009,09,12,12,56,21.80
2009,09,12,12,57,21.60
2009,09,12,12,58,21.60
2009,09,12,12,59,21.60
2009,09,12,13,00,21.60
2009,09,12,13,01,21.60
2009,09,12,13,02,21.60
2009,09,12,13,03,21.60
2009,09,12,13,04,21.60
2009,09,12,13,05,21.60
2009,09,12,13,06,21.70
2009,09,12,13,07,21.90
2009,09,12,13,08,22.00
2009,09,12,13,09,22.20
2009,09,12,13,10,22.20
2009,09,12,13,11,22.30
2009,09,12,13,12,22.40
2009,09,12,13,13,22.50
2009,09,12,13,14,22.50
2009,09,12,13,15,22.50
2009,09,12,13,16,22.50
2009,09,12,13,17,22.50
2009,09,12,13,18,22.60
2009,09,12,13,19,22.60
2009,09,12,13,20,22.60
2009,09,12,13,21,22.60
2009,09,12,13,22,22.70
2009,09,12,13,23,22.70
2009,09,12,13,24,22.80
2009,09,12,13,25,22.80
2009,09,12,13,26,22.80
2009,09,12,13,27,22.80
2009,09,12,13,28,22.90
2009,09,12,13,29,22.90
2009,09,12,13,30,22.90
2009,09,12,13,31,23.00
2009,09,12,13,32,23.10
2009,09,12,13,33,23.10
2009,09,12,13,34,23.10
2009,09,12,13,35,23.10
2009,09,12,13,36,23.20
2009,09,12,13,37,23.30
2009,09,12,13,38,23.30
2009,09,12,13,39,23.30
2009,09,12,13,40,23.30
2009,09,12,13,41,23.30
2009,09,12,13,42,23.30
2009,09,12,13,43,23.30
2009,09,12,13,44,23.30
2009,09,12,13,45,23.30
2009,09,12,13,46,23.20
2009,09,12,13,47,23.20
2009,09,12,13,48,23.30
2009,09,12,13,49,23.30
2009,09,12,13,50,23.30
2009,09,12,13,51,23.30
2009,09,12,13,52,23.30
2009,09,12,13,53,23.30
2009,09,12,13,54,23.30
2009,09,12,13,55,23.40
2009,09,12,13,56,23.50
2009,09,12,13,57,23.60
2009,09,12,13,58,23.60
2009,09,12,13,59,23.70
2009,09,12,14,00,23.70
2009,09,12,14,01,23.70
2009,09,12,14,02,23.70
2009,09,12,14,03,23.70
2009,09,12,14,04,23.70
2009,09,12,14,05,23.60
2009,09,12,14,06,23.70
2009,09,12,14,07,23.70
2009,09,12,14,08,23.60
2009,09,12,14,09,23.60
2009,09,12,14,10,23.60
2009,09,12,14,11,23.60
2009,09,12,14,12,23.70
2009,09,12,14,13,23.70
2009,09,12,14,14,23.70
2009,09,12,14,15,23.70
2009,09,12,14,16,23.70
2009,09,12,14,17,23.80
2009,09,12,14,18,23.80
2009,09,12,14,19,23.80
2009,09,12,14,20,23.80
2009,09,12,14,21,23.80
2009,09,12,14,22,23.70
2009,09,12,14,23,23.70
2009,09,12,14,24,23.70
2009,09,12,14,25,23.80
2009,09,12,14,26,23.90
2009,09,12,14,27,24.00
2009,09,12,14,28,24.10
2009,09,12,14,29,24.20
2009,09,12,14,30,24.20
2009,09,12,14,31,24.30
2009,09,12,14,32,24.30
2009,09,12,14,33,24.30
2009,09,12,14,34,24.40
2009,09,12,14,35,24.50
2009,09,12,14,36,24.50
2009,09,12,14,37,24.60
2009,09,12,14,38,24.70
2009,09,12,14,39,24.80
2009,09,12,14,40,24.90
2009,09,12,14,41,24.90
2009,09,12,14,42,24.90
2009,09,12,14,43,25.00
2009,09,12,14,44,25.00
2009,09,12,14,45,25.00
2009,09,12,14,46,25.00
2009,09,12,14,47,25.00
2009,09,12,14,48,25.00
2009,09,12,14,49,24.90
2009,09,12,14,50,25.00
2009,09,12,14,51,25.10
2009,09,12,14,52,25.20
2009,09,12,14,53,25.20
2009,09,12,14,54,25.20
2009,09,12,14,55,25.20
2009,09,12,14,56,25.20
2009,09,12,14,57,25.30
2009,09,12,14,58,25.40
2009,09,12,14,59,25.40
2009,09,12,15,00,25.50
2009,09,12,15,01,25.60
2009,09,12,15,02,25.60
2009,09,12,15,03,25.60
2009,09,12,15,04,25.60
2009,09,12,15,05,25.60
2009,09,12,15,06,25.70
2009,09,12,15,07,25.70
2009,09,12,15,08,25.70
2009,09,12,15,09,25.80
2009,09,12,15,10,25.90
2009,09,12,15,11,26.00
2009,09,12,15,12,26.00
2009,09,12,15,13,26.00
2009,09,12,15,14,25.90
2009,09,12,15,15,25.80
2009,09,12,15,16,25.70
2009,09,12,15,17,25.40
2009,09,12,15,18,25.30
2009,09,12,15,19,25.20
2009,09,12,15,20,25.00
2009,09,12,15,21,24.90
2009,09,12,15,22,24.90
2009,09,12,15,23,24.80
2009,09,12,15,24,24.70
2009,09,12,15,25,24.60
2009,09,12,15,26,24.60
2009,09,12,15,27,24.50
2009,09,12,15,28,24.60
2009,09,12,15,29,24.60
2009,09,12,15,30,24.60
2009,09,12,15,31,24.60
2009,09,12,15,32,24.60
2009,09,12,15,33,24.70
2009,09,12,15,34,24.80
2009,09,12,15,35,24.90
2009,09,12,15,36,25.10
2009,09,12,15,37,25.20
2009,09,12,15,38,25.30
2009,09,12,15,39,25.40
2009,09,12,15,40,25.50
2009,09,12,15,41,25.50
2009,09,12,15,42,25.60
2009,09,12,15,43,25.70
2009,09,12,15,44,25.80
2009,09,12,15,45,25.80
2009,09,12,15,46,25.90
2009,09,12,15,47,25.90
2009,09,12,15,48,25.80
2009,09,12,15,49,25.60
2009,09,12,15,50,25.40
2009,09,12,15,51,25.10
2009,09,12,15,52,25.00
2009,09,12,15,53,24.90
2009,09,12,15,54,24.80
2009,09,12,15,55,24.80
2009,09,12,15,56,24.80
2009,09,12,15,57,24.80
2009,09,12,15,58,24.80
2009,09,12,15,59,24.70
2009,09,12,16,00,24.60
2009,09,12,16,01,24.60
2009,09,12,16,02,24.70
2009,09,12,16,03,24.70
2009,09,12,16,04,24.80
2009,09,12,16,05,24.80
2009,09,12,16,06,24.80
2009,09,12,16,07,24.80
2009,09,12,16,08,24.80
2009,09,12,16,09,24.80
2009,09,12,16,10,24.80
2009,09,12,16,11,24.80
2009,09,12,16,12,24.80
2009,09,12,16,13,24.90
2009,09,12,16,14,24.80
2009,09,12,16,15,24.90
2009,09,12,16,16,24.80
2009,09,12,16,17,24.80
2009,09,12,16,18,24.90
2009,09,12,16,19,24.90
2009,09,12,16,20,24.90
2009,09,12,16,21,24.90
2009,09,12,16,22,25.00
2009,09,12,16,23,25.00
2009,09,12,16,24,25.10
2009,09,12,16,25,25.10
2009,09,12,16,26,25.20
2009,09,12,16,27,25.30
2009,09,12,16,28,25.40
2009,09,12,16,29,25.60
2009,09,12,16,30,25.70
2009,09,12,16,31,25.80
2009,09,12,16,32,25.90
2009,09,12,16,33,25.90
2009,09,12,16,34,25.90
2009,09,12,16,35,25.90
2009,09,12,16,36,25.90
2009,09,12,16,37,25.80
2009,09,12,16,38,25.70
2009,09,12,16,39,25.60
2009,09,12,16,40,25.60
2009,09,12,16,41,25.50
2009,09,12,16,42,25.40
2009,09,12,16,43,25.20
2009,09,12,16,44,25.10
2009,09,12,16,45,25.10
2009,09,12,16,46,25.00
2009,09,12,16,47,25.00
2009,09,12,16,48,25.00
2009,09,12,16,49,24.90
2009,09,12,16,50,24.90
2009,09,12,16,51,24.90
2009,09,12,16,52,24.90
2009,09,12,16,53,25.00
2009,09,12,16,54,24.90
2009,09,12,16,55,24.90
2009,09,12,16,56,24.90
2009,09,12,16,57,24.90
2009,09,12,16,58,25.00
2009,09,12,16,59,25.10
2009,09,12,17,00,25.10
2009,09,12,17,01,25.10
2009,09,12,17,02,25.20
2009,09,12,17,03,25.30
2009,09,12,17,04,25.40
2009,09,12,17,05,25.50
2009,09,12,17,06,25.50
2009,09,12,17,07,25.50
2009,09,12,17,08,25.50
2009,09,12,17,09,25.40
2009,09,12,17,10,25.40
2009,09,12,17,11,25.30
2009,09,12,17,12,25.20
2009,09,12,17,13,25.20
2009,09,12,17,14,25.20
2009,09,12,17,15,25.10
2009,09,12,17,16,25.10
2009,09,12,17,17,25.10
2009,09,12,17,18,25.10
2009,09,12,17,19,25.20
2009,09,12,17,20,25.30
2009,09,12,17,21,25.30
2009,09,12,17,22,25.30
2009,09,12,17,23,25.30
2009,09,12,17,24,25.20
2009,09,12,17,25,25.00
2009,09,12,17,26,24.90
2009,09,12,17,27,24.90
2009,09,12,17,28,24.90
2009,09,12,17,29,24.80
2009,09,12,17,30,24.70
2009,09,12,17,31,24.70
2009,09,12,17,32,24.60
2009,09,12,17,33,24.60
2009,09,12,17,34,24.50
2009,09,12,17,35,24.40
2009,09,12,17,36,24.30
2009,09,12,17,37,24.20
2009,09,12,17,38,24.10
2009,09,12,17,39,24.10
2009,09,12,17,40,24.00
2009,09,12,17,41,23.90
2009,09,12,17,42,23.80
2009,09,12,17,43,23.70
2009,09,12,17,44,23.70
2009,09,12,17,45,23.70
2009,09,12,17,46,23.70
2009,09,12,17,47,23.70
2009,09,12,17,48,23.60
2009,09,12,17,49,23.60
2009,09,12,17,50,23.40
2009,09,12,17,51,23.40
2009,09,12,17,52,23.40
2009,09,12,17,53,23.40
2009,09,12,17,54,23.30
2009,09,12,17,55,23.30
2009,09,12,17,56,23.30
2009,09,12,17,57,23.30
2009,09,12,17,58,23.30
2009,09,12,17,59,23.30
2009,09,12,18,00,23.30
2009,09,12,18,01,23.30
2009,09,12,18,02,23.30
2009,09,12,18,03,23.30
2009,09,12,18,04,23.30
2009,09,12,18,05,23.30
2009,09,12,18,06,23.30
2009,09,12,18,07,23.30
2009,09,12,18,08,23.30
2009,09,12,18,09,23.30
2009,09,12,18,10,23.30
2009,09,12,18,11,23.30
2009,09,12,18,12,23.30
2009,09,12,18,13,23.30
2009,09,12,18,14,23.30
2009,09,12,18,15,23.30
2009,09,12,18,16,23.20
2009,09,12,18,17,23.20
2009,09,12,18,18,23.20
2009,09,12,18,19,23.20
2009,09,12,18,20,23.20
2009,09,12,18,21,23.20
2009,09,12,18,22,23.20
2009,09,12,18,23,23.20
2009,09,12,18,24,23.20
2009,09,12,18,25,23.20
2009,09,12,18,26,23.10
2009,09,12,18,27,23.10
2009,09,12,18,28,23.10
2009,09,12,18,29,22.90
2009,09,12,18,30,22.90
2009,09,12,18,31,22.70
2009,09,12,18,32,22.60
2009,09,12,18,33,22.50
2009,09,12,18,34,22.40
2009,09,12,18,35,22.30
2009,09,12,18,36,22.20
2009,09,12,18,37,22.20
2009,09,12,18,38,22.10
2009,09,12,18,39,22.10
2009,09,12,18,40,22.00
2009,09,12,18,41,22.00
2009,09,12,18,42,22.00
2009,09,12,18,43,22.00
2009,09,12,18,44,22.00
2009,09,12,18,45,22.00
2009,09,12,18,46,22.00
2009,09,12,18,47,22.10
2009,09,12,18,48,22.10
2009,09,12,18,49,22.10
2009,09,12,18,50,22.00
2009,09,12,18,51,22.00